Volver al catálogo

DELTA 1 DEB

ActivoSSO
NORAD 4499·DEBRIS·🇺🇸 United States

Lanzado Aug 16, 1968 desde Vandenberg Space Force Base

Loading…

Próximos Pases (próximas 24 horas)

TLE

ActualizadoSource: Space-Track

Época: Sep 14, 2026, 11:41 UTC

1 04499U 68069G   26257.48692412 -.00000040  00000-0  11749-4 0  9994
2 04499 101.3533 264.4613 0028140 180.8831 334.8379 12.51301320654420

Sigue DELTA 1 DEB en tiempo real con AllMySat

Download on the App Store